Regional Weather Roundup
Issued by NWS Little Rock, AR

Home | Current Version | Previous Version | Graphics & Text | Print | Product List | Glossary On
Versions: 1 2 3 4 5 6 7 8 9 10 11 12 13 14 15 16 17 18 19 20 21 22 23 24 25 26 27
000
ASUS44 KLZK 241305
RWRLZK

WEATHER ROUNDUP FOR ARKANSAS
NATIONAL WEATHER SERVICE LITTLE ROCK AR
800 AM CDT FRI OCT 24 2014

NOTE: "FAIR" INDICATES FEW OR NO CLOUDS BELOW 12,000 FEET WITH NO
SIGNIFICANT WEATHER AND/OR OBSTRUCTIONS TO VISIBILITY.

ARZ001-003-010-029-241400-
NORTHWEST ARKANSAS

CITY           SKY/WX    TMP DP  RH WIND       PRES   REMARKS
FAYETTEVILLE   CLEAR     47  47 100 CALM      30.15R
FORT SMITH     CLEAR     52  50  93 NE5       30.14S
HARRISON       CLEAR     49  48  97 CALM      30.14R
BENTONVILLE    CLEAR     48  46  93 CALM      30.14R
ROGERS         CLEAR     50  48  93 CALM      30.15R
SILOAM SPGS    CLEAR     48  43  81 CALM      30.15R
HIGHFILL       CLEAR     49  48  97 CALM      30.14R FOG
SPRINGDALE     PTCLDY    50  48  93 CALM      30.16R
$$

ARZ004-005-016-241400-
NORTH CENTRAL ARKANSAS

CITY           SKY/WX    TMP DP  RH WIND       PRES   REMARKS
BATESVILLE     CLEAR     45  43  93 CALM      30.15S
FLIPPIN        CLEAR     45  39  81 CALM      30.14S
MTN HOME       FOG       47  47 100 CALM      30.13S VSB 3/4
$$

ARZ040-041-241400-
WEST CENTRAL ARKANSAS

CITY           SKY/WX    TMP DP  RH WIND       PRES   REMARKS
MENA           CLEAR     50  46  87 CALM      30.17R
MOUNT IDA      CLEAR     46  44  93 CALM      30.14R
$$

ARZ009-017-025-026-028-241400-
NORTHEAST ARKANSAS

CITY           SKY/WX    TMP DP  RH WIND       PRES   REMARKS
CORNING        FAIR      50  50 100 CALM      30.15S FOG
JONESBORO      MOCLDY    47  46  97 CALM      30.15S
NEWPORT        MOCLDY    45  45 100 CALM      30.17R
WALNUT RIDGE   CLEAR     46  43  87 CALM      30.14R
BLYTHEVILLE    CLEAR     46  45  96 CALM      30.16R
NW BLYTHEVILLE CLEAR     48  45  87 CALM      30.15
$$

ARZ022-023-033-042-044-241400-
CENTRAL ARKANSAS

CITY           SKY/WX    TMP DP  RH WIND       PRES   REMARKS
LITTLE ROCK    PTCLDY    49  45  86 CALM      30.17R
N LITTLE ROCK    N/A     51  49  90 W3        30.17R
JACKSONVILLE   CLEAR     45  43  95 CALM      30.15S
SEARCY         CLEAR     45  45 100 CALM      30.17S FOG
HOT SPRINGS    PTCLDY    48  46  93 CALM      30.17R
RUSSELLVILLE   CLEAR     46  44  93 CALM      30.15S FOG
$$

ARZ036-241400-
EAST ARKANSAS

CITY           SKY/WX    TMP DP  RH WIND       PRES   REMARKS
WEST MEMPHIS   CLEAR     45  45 100 CALM      30.15S
$$

ARZ050-053-066-070-073-241400-
SOUTHWEST ARKANSAS

CITY           SKY/WX    TMP DP  RH WIND       PRES   REMARKS
ARKADELPHIA    FAIR      47  47 100 CALM      30.18R
CAMDEN         CLEAR     43  41  93 CALM      30.17S FOG
TEXARKANA      CLEAR     48  48 100 CALM      30.17R
EL DORADO      CLEAR     44  42  93 CALM      30.17S
DE QUEEN       FOG       48  48 100 CALM      30.16R VSB 1/4
$$

ARZ056-057-069-241400-
SOUTHEAST ARKANSAS

CITY           SKY/WX    TMP DP  RH WIND       PRES   REMARKS
PINE BLUFF     CLEAR     45  44  97 CALM      30.17R
STUTTGART      CLEAR     48  46  93 CALM      30.17R
MONTICELLO     CLEAR     46  44  93 CALM      30.16R

$$





USA.gov is the U.S. government's official web portal to all federal, state and local government web resources and services.